[[{"header":{"parameterUnit":"m.s-1","parameterCategory":1,"la1":30.2991,"la2":30.254,"lo1":-89.0895,"lo2":-89.0444,"dy":0.0017,"dx":0.0017,"nx":28,"ny":28,"refTime":"2023-11-09T09:00:00:Z","depth":0,"parameterNumber":2,"parameterNumberName":"U-component_of_WINDS"},"data":[0,0,0,0,0,0,0,0,0,0,0,0,0,0,0,0,0,0,0,0,0,0,0,0,0,0,0,0,0,0,0,0,0,0,0,0,0,0,0,0,0,0,0,0,0,0,0,0,0,0,0,0,0,0,0,0,0,0,-1.0878,-1.0879,0,-1.0897,-1.0897,-1.0897,-1.0919,-1.092,-1.092,-1.092,-1.0937,-1.0938,-1.0938,0,0,0,0,0,0,0,0,0,0,0,0,0,-1.0861,-1.0862,-1.0878,-1.0879,-1.0879,-1.0897,-1.0897,-1.0897,-1.0919,-1.092,-1.092,-1.092,-1.0937,-1.0938,-1.0938,0,0,0,0,0,0,0,0,0,0,0,0,0,-1.0873,-1.0862,-1.0878,-1.0892,-1.0893,-1.0897,-1.0897,-1.0897,-1.0919,-1.092,-1.092,-1.0921,-1.0937,-1.0938,-1.0938,-1.0929,0,0,-1.0938,-1.0938,0,0,0,0,0,0,0,0,-1.0872,-1.0874,-1.089,-1.0891,-1.0893,-1.0906,-1.0897,-1.0908,-1.0919,-1.0909,-1.092,-1.0921,-1.0927,-1.0928,-1.093,-1.0929,-1.093,-1.0938,-1.0939,-1.0939,-1.0939,0,0,0,0,0,0,0,-1.0872,-1.0873,-1.0886,-1.089,-1.0892,-1.0897,-1.0899,-1.0899,-1.0915,-1.091,-1.0912,-1.0914,-1.0927,-1.093,-1.093,-1.093,-1.0938,-1.0939,-1.0939,-1.0939,-1.0924,-1.0923,0,0,0,0,0,0,-1.0869,-1.0872,-1.0885,-1.0886,-1.0884,-1.0897,-1.0899,-1.0901,-1.0915,-1.0917,-1.0913,-1.0915,-1.0929,-1.093,-1.0931,-1.0921,-1.0939,-1.0939,-1.0939,-1.0924,-1.0924,-1.0923,0,0,0,0,0,0,-1.0868,-1.087,-1.0884,-1.088,-1.0882,-1.0897,-1.0899,-1.0901,-1.0904,-1.0917,-1.092,-1.0913,-1.093,-1.0931,-1.0929,-1.0922,-1.0939,-1.0939,-1.0925,-1.0924,-1.0923,-1.0901,0,0,0,0,0,0,-1.0868,-1.087,-1.0866,-1.0879,-1.0882,-1.0882,-1.0898,-1.0901,-1.0904,-1.0906,-1.0917,-1.092,-1.093,-1.0929,-1.0929,-1.0922,-1.0939,-1.0925,-1.0924,-1.0924,-1.0902,-1.0899,-1.0897,0,0,0,0,0,-1.0867,-1.0859,-1.0866,-1.0867,-1.0878,-1.0882,-1.0883,-1.0895,-1.0904,-1.09,-1.0909,-1.0919,-1.0923,-1.0928,-1.0929,-1.0922,-1.0926,-1.0925,-1.0924,-1.0903,-1.09,-1.0897,0,0,0,0,0,0,-1.0843,-1.0861,-1.0869,-1.0865,-1.0872,-1.0885,-1.0881,-1.0891,-1.0896,-1.0897,-1.0912,-1.0915,-1.0911,-1.0917,-1.0923,-1.0914,-1.0926,-1.0925,-1.091,-1.0907,-1.0905,-1.0902,-1.0939,0,0,0,0,0,-1.0838,-1.0839,-1.0854,-1.0849,-1.0852,-1.0866,-1.0868,-1.0877,-1.0885,-1.0888,-1.0897,-1.0903,-1.0906,-1.0907,-1.091,-1.0904,-1.0906,-1.09,-1.0897,-1.0895,-1.0893,-1.089,-1.0887,-1.0919,-1.0919,-1.0919,0,0,-1.0826,-1.0836,-1.0835,-1.0845,-1.0851,-1.0852,-1.0869,-1.0869,-1.0869,-1.0888,-1.0886,-1.0893,-1.0902,-1.0898,-1.0896,-1.0902,-1.0885,-1.0893,-1.0891,-1.0891,-1.0888,-1.0885,-1.0882,-1.0918,-1.0918,-1.0919,0,0,-1.0804,-1.0812,-1.0808,-1.0815,-1.0825,-1.0835,-1.0834,-1.0847,-1.0852,-1.0852,-1.0865,-1.0867,-1.0871,-1.0876,-1.088,-1.0862,-1.0871,-1.0863,-1.0848,-1.0844,-1.0842,-1.0839,-1.0832,-1.0829,-1.0861,-1.0861,-1.0861,0,-1.0787,-1.079,-1.0805,-1.0805,-1.0808,-1.0826,-1.0822,-1.0828,-1.0838,-1.084,-1.0847,-1.0854,-1.0861,-1.0858,-1.0853,-1.0856,-1.0855,-1.086,-1.0841,-1.0839,-1.0837,-1.083,-1.0827,-1.086,-1.086,-1.086,-1.086,0,-1.0768,-1.077,-1.0766,-1.0776,-1.078,-1.0777,-1.0792,-1.0794,-1.0803,-1.0812,-1.0811,-1.0821,-1.0826,-1.0827,-1.0836,-1.0825,-1.0829,-1.0838,-1.085,-1.0832,-1.0826,-1.0824,-1.0858,-1.0859,-1.0859,-1.0859,0,0,-1.0729,-1.075,-1.0748,-1.0753,-1.0766,-1.0767,-1.0767,-1.0773,-1.0773,-1.0781,-1.0779,-1.0784,-1.0793,-1.0797,-1.0807,-1.0804,-1.0788,-1.0814,-1.0815,-1.0808,-1.0777,-1.0768,-1.0765,-1.0796,-1.0795,-1.0795,-1.0775,0,-1.0709,-1.0708,-1.0723,-1.0718,-1.0719,-1.0738,-1.0737,-1.0745,-1.0754,-1.0756,-1.0766,-1.0768,-1.0781,-1.0783,-1.0781,-1.0791,-1.0782,-1.0793,-1.0794,-1.0794,-1.0789,-1.0762,-1.0752,-1.0733,-1.0773,-1.0773,-1.0773,0,-1.0684,-1.0691,-1.0686,-1.07,-1.0701,-1.07,-1.0707,-1.071,-1.0719,-1.0726,-1.0731,-1.0743,-1.0743,-1.0756,-1.0755,-1.0762,-1.0764,-1.0769,-1.0768,-1.0767,-1.078,-1.0758,-1.0727,-1.0724,-1.0769,-1.0769,-1.077,0,-1.0654,-1.0662,-1.0661,-1.0665,-1.0681,-1.068,-1.0687,-1.0698,-1.07,-1.0707,-1.0709,-1.0715,-1.0718,-1.0722,-1.0736,-1.0744,-1.0733,-1.0747,-1.0738,-1.0737,-1.0733,-1.0733,-1.07,-1.0737,-1.0737,-1.0737,-1.0737,0,-1.0628,-1.0624,-1.0647,-1.0646,-1.0642,-1.066,-1.0656,-1.0664,-1.0674,-1.0674,-1.0691,-1.0691,-1.071,-1.0712,-1.0723,-1.072,-1.0722,-1.0726,-1.0729,-1.0724,-1.0723,-1.0723,-1.0724,-1.0737,-1.0737,-1.0737,-1.0737,0,-1.0593,-1.0609,-1.0608,-1.0625,-1.0629,-1.0625,-1.064,-1.0639,-1.065,-1.065,-1.0651,-1.0668,-1.0672,-1.0686,-1.0693,-1.07,-1.0694,-1.07,-1.069,-1.0691,-1.0681,-1.0681,-1.0646,-1.0641,-1.0683,-1.0683,-1.0682,0,-1.0574,-1.0572,-1.0589,-1.0591,-1.0597,-1.06,-1.0604,-1.0622,-1.0625,-1.0636,-1.0634,-1.0639,-1.0644,-1.0649,-1.0661,-1.0667,-1.0672,-1.066,-1.0673,-1.0668,-1.067,-1.0669,-1.0668,-1.0656,-1.0655,-1.0655,-1.0654,0,-1.0539,-1.0547,-1.0552,-1.0559,-1.0563,-1.057,-1.0578,-1.0578,-1.0598,-1.0601,-1.0605,-1.0609,-1.0617,-1.0621,-1.0629,-1.0636,-1.0648,-1.0651,-1.0648,-1.0642,-1.0636,-1.0637,-1.068,-1.0651,-1.0651,-1.0651,-1.0651,-1.0652,-1.051,-1.0509,-1.0521,-1.0526,-1.0534,-1.0541,-1.0541,-1.0553,-1.0557,-1.0565,-1.0576,-1.0578,-1.0589,-1.0601,-1.0607,-1.061,-1.0616,-1.0613,-1.0612,-1.0611,-1.0608,-1.0638,-1.0611,-1.0611,-1.0612,-1.0612,-1.0612,0,-1.0474,-1.0483,-1.0488,-1.0498,-1.0502,-1.0516,-1.0525,-1.0527,-1.053,-1.0539,-1.0544,-1.0549,-1.0554,-1.0568,-1.0574,-1.0573,-1.0579,-1.0574,-1.0573,-1.0574,-1.0602,-1.0602,-1.0569,-1.0569,-1.0569,-1.0569,-1.0569,-1.0569,-1.0455,-1.0453,-1.0464,-1.0466,-1.0476,-1.0479,-1.0483,-1.049,-1.0498,-1.0503,-1.0507,-1.0517,-1.0528,-1.0536,-1.0541,-1.0545,-1.0545,-1.0538,-1.0544,-1.0569,-1.0573,-1.0576,-1.0577,-1.0539,-1.0539,-1.0516,-1.0516,-1.0515]},{"header":{"parameterUnit":"m.s-1","parameterCategory":1,"la1":30.2991,"la2":30.254,"lo1":-89.0895,"lo2":-89.0444,"dy":0.0017,"dx":0.0017,"nx":28,"ny":28,"refTime":"2023-11-09T09:00:00:Z","depth":0,"parameterNumber":3,"parameterNumberName":"V-component_of_WINDS"},"data":[0,0,0,0,0,0,0,0,0,0,0,0,0,0,0,0,0,0,0,0,0,0,0,0,0,0,0,0,0,0,0,0,0,0,0,0,0,0,0,0,0,0,0,0,0,0,0,0,0,0,0,0,0,0,0,0,0,0,1.2205,1.2205,0,1.2236,1.2237,1.2237,1.2228,1.2227,1.2227,1.2226,1.2258,1.2259,1.2261,0,0,0,0,0,0,0,0,0,0,0,0,0,1.2137,1.2139,1.2205,1.2205,1.2205,1.2236,1.2237,1.2237,1.2228,1.2227,1.2227,1.2226,1.2257,1.2259,1.2261,0,0,0,0,0,0,0,0,0,0,0,0,0,1.2168,1.2139,1.2204,1.2205,1.2205,1.2236,1.2237,1.2237,1.2228,1.2227,1.2226,1.2225,1.2257,1.2259,1.2261,1.2294,0,0,1.2268,1.2269,0,0,0,0,0,0,0,0,1.2166,1.217,1.2204,1.2205,1.2205,1.2227,1.2225,1.2256,1.2229,1.2219,1.2226,1.2225,1.2248,1.2251,1.2259,1.2295,1.2297,1.2268,1.2269,1.227,1.2271,0,0,0,0,0,0,0,1.2164,1.2169,1.2217,1.2205,1.2205,1.2204,1.2207,1.2231,1.2239,1.222,1.222,1.2224,1.2248,1.2257,1.226,1.2297,1.2268,1.227,1.2271,1.2272,1.2364,1.2365,0,0,0,0,0,0,1.2161,1.2167,1.2216,1.2218,1.2183,1.2206,1.2209,1.2221,1.2239,1.224,1.2224,1.2223,1.2254,1.2257,1.2261,1.2301,1.227,1.2272,1.2273,1.2362,1.2364,1.2365,0,0,0,0,0,0,1.216,1.2166,1.2215,1.2192,1.2198,1.2208,1.2221,1.2222,1.2231,1.2242,1.2243,1.2232,1.2253,1.2258,1.2286,1.2302,1.2273,1.2275,1.2361,1.2363,1.2364,1.2382,0,0,0,0,0,0,1.2158,1.2165,1.2177,1.2193,1.22,1.2239,1.2222,1.2224,1.2235,1.2233,1.2249,1.2251,1.2253,1.2283,1.2288,1.2305,1.2277,1.236,1.2362,1.2364,1.238,1.2384,1.2387,0,0,0,0,0,1.2156,1.218,1.2178,1.2184,1.2215,1.224,1.2244,1.2246,1.2236,1.2249,1.2256,1.225,1.23,1.2286,1.2292,1.2309,1.2359,1.2361,1.2364,1.2378,1.2383,1.2387,0,0,0,0,0,0,1.2165,1.2182,1.218,1.221,1.2224,1.2238,1.2254,1.2251,1.2268,1.2266,1.2268,1.2271,1.2301,1.2308,1.2292,1.2343,1.2328,1.2332,1.2337,1.2341,1.2345,1.2342,1.2278,0,0,0,0,0,1.2171,1.219,1.2204,1.2229,1.2237,1.2244,1.2255,1.2256,1.227,1.2276,1.2285,1.2299,1.2318,1.233,1.2348,1.2381,1.2385,1.2396,1.24,1.2403,1.2406,1.2426,1.2431,1.2373,1.2373,1.2373,0,0,1.2183,1.2195,1.2206,1.2232,1.2242,1.2262,1.2249,1.227,1.2285,1.2279,1.2306,1.2314,1.233,1.2361,1.2375,1.2368,1.2423,1.2406,1.2409,1.241,1.2429,1.2434,1.2439,1.2375,1.2375,1.2375,0,0,1.2215,1.2226,1.2249,1.226,1.2277,1.2283,1.2288,1.2304,1.2309,1.2337,1.2333,1.2352,1.2384,1.2396,1.2406,1.2446,1.2441,1.2452,1.2471,1.249,1.2494,1.2498,1.2513,1.2518,1.2455,1.2455,1.2455,0,1.2228,1.2257,1.2261,1.2283,1.2295,1.2292,1.2315,1.2327,1.2348,1.2357,1.2349,1.2391,1.2401,1.2435,1.2446,1.2454,1.2461,1.2449,1.2494,1.2498,1.2501,1.2516,1.2521,1.2456,1.2456,1.2456,1.2456,0,1.2272,1.2293,1.231,1.2332,1.2346,1.2369,1.2376,1.239,1.2391,1.2398,1.2427,1.244,1.2461,1.247,1.247,1.2505,1.25,1.2493,1.2478,1.2508,1.2521,1.2527,1.2458,1.2457,1.2457,1.2457,0,0,1.2309,1.2335,1.2341,1.2351,1.2371,1.2388,1.2411,1.2433,1.2445,1.2461,1.2481,1.251,1.2504,1.2516,1.2518,1.2535,1.2567,1.2526,1.2526,1.2533,1.2607,1.2612,1.2618,1.2565,1.2566,1.2567,1.2606,0,1.2342,1.2384,1.2389,1.2426,1.2446,1.2445,1.2466,1.248,1.2488,1.2507,1.2515,1.2536,1.2526,1.2534,1.255,1.2559,1.2582,1.2557,1.2584,1.2585,1.2579,1.2625,1.263,1.2667,1.2611,1.2612,1.2613,0,1.2386,1.2405,1.2444,1.2463,1.2472,1.249,1.2511,1.2529,1.2547,1.2551,1.2566,1.2566,1.2592,1.2577,1.2612,1.2595,1.2607,1.2614,1.2615,1.2617,1.26,1.2628,1.2678,1.2684,1.2621,1.262,1.262,0,1.2409,1.2444,1.2472,1.2482,1.2504,1.2518,1.2528,1.2545,1.2558,1.2577,1.2586,1.2607,1.2619,1.2636,1.2643,1.2631,1.2678,1.2664,1.2683,1.2683,1.2692,1.2691,1.2744,1.27,1.27,1.27,1.27,0,1.2445,1.247,1.2483,1.25,1.2528,1.2535,1.2562,1.2572,1.2587,1.2607,1.2608,1.2626,1.2634,1.2655,1.266,1.2689,1.2695,1.2699,1.27,1.2699,1.2698,1.2706,1.2703,1.2702,1.2701,1.2701,1.2701,0,1.2475,1.2485,1.2516,1.2536,1.2542,1.2561,1.2579,1.2596,1.2605,1.263,1.2636,1.2649,1.2674,1.2683,1.2712,1.2716,1.275,1.2749,1.2744,1.2744,1.2763,1.2761,1.2822,1.2831,1.2781,1.2782,1.2782,0,1.2497,1.2516,1.2539,1.2552,1.2563,1.2585,1.2599,1.2607,1.2622,1.2645,1.266,1.2685,1.2704,1.2743,1.2755,1.2778,1.2778,1.2798,1.2781,1.278,1.2778,1.2777,1.2779,1.2801,1.2801,1.2802,1.2802,0,1.2535,1.254,1.2561,1.2584,1.2601,1.2619,1.2637,1.2649,1.266,1.2677,1.2702,1.2717,1.2748,1.2773,1.2797,1.2808,1.2807,1.2808,1.2813,1.2811,1.2808,1.2811,1.2752,1.2806,1.2805,1.2805,1.2805,1.2805,1.2562,1.2579,1.2599,1.2622,1.2637,1.2654,1.2672,1.2684,1.2705,1.2731,1.2735,1.2762,1.2782,1.2814,1.2826,1.2848,1.2843,1.2851,1.2853,1.2855,1.2857,1.2805,1.2853,1.2853,1.2853,1.2852,1.2852,0,1.26,1.2614,1.2635,1.2661,1.268,1.2679,1.27,1.2716,1.274,1.2758,1.2778,1.2808,1.2833,1.2848,1.2873,1.2888,1.2888,1.2894,1.2893,1.2896,1.286,1.2852,1.2893,1.2893,1.2893,1.2893,1.2893,1.2893,1.2623,1.2652,1.266,1.2698,1.2711,1.2738,1.275,1.2766,1.2781,1.2815,1.2836,1.2846,1.2864,1.289,1.2913,1.2917,1.2926,1.2933,1.2936,1.2902,1.2898,1.2894,1.2887,1.2935,1.2935,1.297,1.2971,1.2971]}]]